Regional Weather Roundup
Issued by NWS

Home | Current Version | Previous Version | Graphics & Text | Print | Product List | Glossary On
Versions: 1 2 3 4 5 6 7 8 9 10 11 12 13 14 15 16 17 18 19 20 21 22 23 24 25 26 27 28 29 30 31 32 33 34 35 36 37 38 39 40 41 42 43 44 45 46 47 48 49 50
000
ASUS43 KFSD 032302
RWRSD

WEATHER ROUNDUP FOR SOUTH DAKOTA
NATIONAL WEATHER SERVICE SIOUX FALLS SD
600 PM CDT MON AUG 03 2015

NOTE: "FAIR" INDICATES FEW OR NO CLOUDS BELOW 12,000 FEET WITH NO
SIGNIFICANT WEATHER AND/OR OBSTRUCTIONS TO VISIBILITY.


SDZ001>005-009-010-012>017-040000-
NORTHWEST AND NORTH CENTRAL SOUTH DAKOTA

CITY           SKY/WX    TMP DP  RH WIND       PRES   REMARKS
BUFFALO          N/A     85  51  31 SE13      29.90F
FAITH            N/A     85  49  28 SE7       29.96F
MOBRIDGE       SUNNY     86  54  33 NW6       29.93F
$$

SDZ012>016-024>037-041>051-057-063-072>074-040000-
SOUTHWEST AND SOUTH CENTRAL SOUTH DAKOTA

CITY           SKY/WX    TMP DP  RH WIND       PRES   REMARKS
RAPID CTY ARPT PTSUNNY   81  61  50 SE10      29.95F
PIERRE         SUNNY     86  53  32 VRB7      29.93F
CUSTER         PTSUNNY   74  58  57 E13G18    30.10F
ELLSWORTH AFB  PTSUNNY   83  59  44 SE10      29.95F
PHILIP         MOSUNNY   84  59  42 SE9       29.93F
PINE RIDGE     PTSUNNY   88  62  41 E12       29.93F
WINNER         FAIR      86  56  35 E13       29.95F
$$

SDZ004>011-016>023-039-040-040000-
NORTHEAST SOUTH DAKOTA

CITY           SKY/WX    TMP DP  RH WIND       PRES   REMARKS
ABERDEEN       SUNNY     82  50  32 N8        29.95F
WATERTOWN      SUNNY     78  53  41 N12       29.97S
BROOKINGS      SUNNY     79  54  41 NW7       29.98S
SISSETON         N/A     78  49  35 N14       29.93F
$$

SDZ017-020-022-023-036>040-048>070-040000-
SOUTHEAST SOUTH DAKOTA

CITY           SKY/WX    TMP DP  RH WIND       PRES   REMARKS
SIOUX FALLS    MOSUNNY   82  58  43 CALM      29.95F
HURON          SUNNY     82  54  37 N5        29.94F
CHAMBERLAIN    SUNNY     81  60  48 S3        29.95F
MITCHELL       SUNNY     84  61  45 NW6       29.94F
YANKTON        SUNNY     81  61  50 E6        29.93F
$$

ABBREVIATIONS USED IN REMARKS
   TC - TEMPERATURE IN CELSIUS
  WCI - WIND CHILL INDEX
   HX - HEAT INDEX
  VSB - VISIBILITY



USA.gov is the U.S. government's official web portal to all federal, state and local government web resources and services.